User: anonymous   Login
Location: Unspecified
(0.0000°N, 0.0000°E)
Time: 09:11:40
(UTC+00:00)
Language:

PRISMA (TANGO) - Orbit

View from above orbital plane
View from above orbital plane
View from above satellite
View from above satellite

Ground track
Ground track

The orbit data is extracted from the following two-line orbital elements,

1 36827U 10028F   17086.89875365 +.00000080 +00000-0 +37548-4 0  9999
2 36827 098.4576 255.8232 0041501 285.1287 074.5314 14.42253994217139
Epoch (UTC): 27 March 2017 21:34:12
Eccentricity: 0.0041501
inclination: 98.4576°
perigee height: 721 km
apogee height: 780 km
right ascension of ascending node: 255.8232°
argument of perigee: 285.1287°
revolutions per day: 14.42253994
mean anomaly at epoch: 74.5314°
orbit number at epoch: 21713

The dashed part of the orbit path shows where the satellite is in the earth's shadow,  

DLR